This is the latest recevied weather packets stored in our database for station/object OH2TI. If no packets are shown the sender has not sent any weather packets the latest 10 day(s).
| Time | Temp. | Humidity | Pressure | Rain* | Wind** | Luminosity | Snow |
|---|---|---|---|---|---|---|---|
| 1777960789 | 8.89° C | 69% | 997.4 hPa | - | - | - | - |
| 1777960394 | 8.89° C | 70% | 997.3 hPa | - | - | - | - |
| 1777959692 | 8.89° C | 72% | 997.5 hPa | - | - | - | - |
| 1777959164 | 8.33° C | 75% | 997.5 hPa | - | - | - | - |
| 1777958712 | 7.78° C | 78% | 997.5 hPa | - | - | - | - |
| 1777958112 | 7.22° C | 82% | 997.6 hPa | - | - | - | - |
| 1777957662 | 6.67° C | 83% | 997.5 hPa | - | - | - | - |
| 1777956869 | 6.67° C | 85% | 997.6 hPa | - | - | - | - |
| 1777956079 | 6.67° C | 90% | 997.6 hPa | - | - | - | - |
| 1777955659 | 6.11° C | 94% | 997.7 hPa | - | - | - | - |
| 1777955139 | 5.56° C | 96% | 997.8 hPa | - | - | - | - |
| 1777954729 | 5° C | 97% | 997.7 hPa | - | - | - | - |
| 1777954239 | 5° C | 97% | 997.7 hPa | - | - | - | - |
| 1777953389 | 5° C | 97% | 997.6 hPa | - | - | - | - |
| 1777952519 | 4.44° C | 97% | 997.7 hPa | - | - | - | - |
| 1777952091 | 4.44° C | 96% | 997.7 hPa | - | - | - | - |
| 1777951409 | 4.44° C | 96% | 997.9 hPa | - | - | - | - |
| 1777950749 | 3.89° C | 96% | 998 hPa | - | - | - | - |
| 1777950381 | 3.89° C | 95% | 998 hPa | - | - | - | - |
| 1777949549 | 3.89° C | 94% | 998 hPa | - | - | - | - |
| 1777948662 | 5° C | 93% | 998.1 hPa | - | - | - | - |
| 1777948122 | 5° C | 93% | 998.1 hPa | - | - | - | - |
| 1777947409 | 5° C | 92% | 998.2 hPa | - | - | - | - |
| 1777946694 | 5.56° C | 92% | 998.3 hPa | - | - | - | - |
| 1777946031 | 5.56° C | 92% | 998.6 hPa | - | - | - | - |
* Rain since midnight (hover to see other rain measurements)
** Current wind speed in m/s (hover to see current wind gust speed)